Weather in Santarem

Brazil     2°27′24″S   54°43′04″W
temp.,
°C
wind,
m/s
gust,
m/s
humid.,
%
clouds,
%
prec.,
mm/h
press.,
hPa
HPBL,
m
18 may, wed
wed1800:00+23sse019696 0.4 101311
03:00+23s1198100 0.4 101127
06:00+22sse119878 0.0 101230
09:00+25sse1289100 0.1 1014243
12:00+27ese1285100 2.3 1013514
15:00+30se126663 3.2 10101031
18:00+26wsw1189100 1.1 101013
21:00+23ssw2196100 2.3 101342
19 may, thu
thu1900:00+23ssw1298100 3.7 101348
03:00+22sse119899 6.0 101142
06:00+22se129862 1.8 101262
09:00+23s019795 2.3 1015116
12:00+23nw1297100 2.0 101495
15:00+26nw3376100 2.3 1011762
18:00+24wnw2689100 0.0 1012415
21:00+23wnw2694100 0.0 1014265
20 may, fri
fri2000:00+22wnw2794100 0.0 1015312
03:00+22w169399 0.0 1013372
06:00+22wnw1495100 0.4 1014199
09:00+22wsw1398100 2.1 1017209
12:00+22w1498100 1.5 1017233
15:00+22wnw1398100 2.8 1015228
18:00+22nw1198100 0.1 101565
21:00+21nw0198100 0.1 101732
21 may, sat
sat2100:00+21nw1198100 0.1 101727
03:00+21wnw1199100 0.1 101564
06:00+21nnw0099100 0.1 101629
09:00+22sw009790 0.1 1018103
12:00+23nne0194100 0.2 1018107
15:00+24nne1191100 0.3 1015228
18:00+22ene1197100 0.1 101537
21:00+22ene0197100 0.1 101726
22 may, sun
sun2200:00+21ene119780 0.0 101728
03:00+21e119928 0.0 101525
06:00+20e119930 0.0 101626
09:00+24ene228421 0.0 1017428
12:00+30e23575 0.0 10161225
15:00+29nne126698 0.2 1013500
18:00+24ssw0188100 0.6 101212
21:00+23sse008951 0.6 101411